Pontiac, MI

8:31 PM EST on December 06, 2019 (GMT -0500)
Oakland County International

Weather History for KPTK - November, 2019

Change the Weather History Date:

Tuesday, November 19, 2019

  Actual Average Record
Temperature  
Mean Temperature 32 °F -  
Max Temperature 39 °F 43 °F 60 °F (2015)
Min Temperature 24 °F 30 °F 12 °F (2014)
Degree Days  
Heating Degree Days 34    
Moisture  
Dew Point 30 °F    
Average Humidity 89    
Maximum Humidity 93    
Minimum Humidity 82    
Precipitation  
Precipitation 0.00 in - - ()
Sea Level Pressure  
Sea Level Pressure 29.81 in    
Wind  
Wind Speed 1 mph (West)    
Max Wind Speed 6 mph    
Max Gust Speed -    
Visibility 4 miles    
Events Fog    
Averages and records for this station are not official NWS values.
T = Trace of Precipitation, MM = Missing Value Source: NWS Daily Summary

Daily Weather History Graph

Daily Weather History Graph

Search for Another Location

Airport or City:

Astronomy

Nov. 19, 2019 Rise Set
Actual Time 7:29 AM EST 5:07 PM EST
Civil Twilight 6:59 AM EST 5:38 PM EST
Nautical Twilight 6:24 AM EST 6:12 PM EST
Astronomical Twilight 5:51 AM EST 6:46 PM EST
Moon No Moon Rise 1:39 PM EST (11/19)
Length of Visible Light 10h 39m
Length of Day
9h 37m
Waning Gibbous, 52% of the Moon is Illuminated
Nov 19
Waning Gibbous
Nov 19
Last Quarter
Nov 26
New
Dec 4
First Quarter
Dec 12
Full

Hourly Weather History & Observations

Time (EST) Temp. Windchill Dew Point Humidity Pressure Visibility Wind Dir Wind Speed Gust Speed Precip Events Conditions
12:13 AM 26.1 °F - 24.1 °F 92% 29.72 in 2.0 mi Calm Calm - N/A   Clear
12:27 AM 27.0 °F - 24.1 °F 89% 29.72 in 4.0 mi Calm Calm - N/A   Clear
12:53 AM 27.0 °F 21.6 °F 24.1 °F 89% 29.74 in 4.0 mi West 4.6 mph - N/A   Clear
1:53 AM 26.1 °F - 21.9 °F 84% 29.75 in 5.0 mi Calm Calm - N/A   Clear
3:48 AM 24.8 °F - 21.2 °F 86% 29.72 in 1.8 mi Calm Calm - N/A   Clear
3:53 AM 25.0 °F - 21.9 °F 88% 29.75 in 1.5 mi Calm Calm - N/A   Clear
4:07 AM 25.0 °F 20.7 °F 21.9 °F 88% 29.72 in 3.0 mi West 3.5 mph - N/A   Partly Cloudy
4:53 AM 26.1 °F - 23.0 °F 88% 29.75 in 5.0 mi Calm Calm - N/A   Mostly Cloudy
5:53 AM 28.9 °F - 26.1 °F 89% 29.76 in 4.0 mi Calm Calm - N/A   Overcast
6:53 AM 28.9 °F - 26.1 °F 89% 29.77 in 3.0 mi Calm Calm - N/A   Overcast
7:37 AM 30.9 °F - 28.0 °F 89% 29.75 in 2.5 mi Calm Calm - N/A   Overcast
7:53 AM 32.0 °F - 28.9 °F 88% 29.78 in 2.0 mi Calm Calm - N/A   Overcast
8:08 AM 30.9 °F - 28.0 °F 89% 29.76 in 1.8 mi Calm Calm - N/A   Overcast
8:35 AM 32.0 °F - 28.9 °F 88% 29.77 in 2.0 mi Calm Calm - N/A   Overcast
8:53 AM 32.0 °F 28.7 °F 28.9 °F 88% 29.81 in 2.0 mi WSW 3.5 mph - N/A   Overcast
9:18 AM 33.1 °F - 30.0 °F 89% 29.78 in 1.8 mi Calm Calm - N/A   Overcast
9:53 AM 33.1 °F - 30.9 °F 92% 29.82 in 1.2 mi Calm Calm - N/A   Overcast
10:40 AM 34.0 °F 31.0 °F 32.0 °F 92% 29.79 in 0.2 mi WNW 3.5 mph - N/A Fog Fog
10:50 AM 33.8 °F - 32.0 °F 93% 29.79 in 1.0 mi Calm Calm - N/A   Overcast
10:53 AM 34.0 °F - 32.0 °F 92% 29.82 in 1.0 mi Calm Calm - N/A   Overcast
11:27 AM 35.1 °F - 33.1 °F 92% 29.79 in 2.0 mi Calm Calm - N/A   Overcast
11:53 AM 36.0 °F - 33.1 °F 89% 29.82 in 2.5 mi Calm Calm - N/A   Overcast
12:05 PM 36.0 °F - 34.0 °F 93% 29.79 in 2.5 mi Calm Calm - N/A   Overcast
12:53 PM 37.9 °F - 34.0 °F 86% 29.81 in 2.5 mi Calm Calm - N/A   Overcast
12:59 PM 37.9 °F - 34.0 °F 86% 29.78 in 3.0 mi Calm Calm - N/A   Overcast
1:53 PM 39.0 °F 36.8 °F 34.0 °F 82% 29.82 in 5.0 mi WNW 3.5 mph - N/A   Haze
2:16 PM 39.0 °F 36.8 °F 34.0 °F 82% 29.80 in 4.0 mi West 3.5 mph - N/A   Haze
2:53 PM 39.0 °F 35.7 °F 34.0 °F 82% 29.84 in 4.0 mi WSW 4.6 mph - N/A   Haze
3:37 PM 37.9 °F 33.5 °F 34.0 °F 86% 29.82 in 9.0 mi West 5.8 mph - N/A   Overcast
3:53 PM 37.9 °F 33.5 °F 34.0 °F 86% 29.86 in 7.0 mi West 5.8 mph - N/A   Overcast
4:44 PM 37.9 °F 34.4 °F 34.0 °F 86% 29.85 in 7.0 mi West 4.6 mph - N/A   Overcast
4:53 PM 37.9 °F 34.4 °F 34.0 °F 86% 29.88 in 7.0 mi West 4.6 mph - N/A   Overcast
5:15 PM 37.0 °F 33.3 °F 34.0 °F 89% 29.86 in 7.0 mi West 4.6 mph - N/A   Overcast
5:53 PM 37.0 °F 32.4 °F 34.0 °F 89% 29.89 in 7.0 mi West 5.8 mph - N/A   Overcast
6:22 PM 36.0 °F 33.3 °F 34.0 °F 93% 29.87 in 7.0 mi WNW 3.5 mph - N/A   Overcast
6:53 PM 37.0 °F - 34.0 °F 89% 29.91 in 8.0 mi Calm Calm - N/A   Overcast
7:53 PM 36.0 °F - 34.0 °F 93% 29.93 in 6.0 mi Calm Calm - N/A   Overcast
8:53 PM 37.0 °F - 34.0 °F 89% 29.94 in 7.0 mi Calm Calm - N/A   Overcast
9:53 PM 36.0 °F - 33.1 °F 89% 29.95 in 6.0 mi Calm Calm - N/A   Overcast
10:53 PM 35.1 °F 32.2 °F 33.1 °F 92% 29.96 in 6.0 mi West 3.5 mph - N/A   Overcast
11:53 PM 37.0 °F - 34.0 °F 89% 29.97 in 5.0 mi Calm Calm - N/A   Overcast